SAS195 EKCH-ESGG

Flight info

Callsign SAS195
Flight time N/A
Altitude 21000
Route VEDA4A VEDAR L997 RISMA RISM3S
Aircraft CRJ9/M-SDFGIRWZ/S

Departure

Time 2026-04-23 19:17
Airport Copenhagen Kastrup Airport (EKCH)

Arrival

Time N/A
Airport Göteborg Landvetter Airport (ESGG)
Time Latitude Longitude Altitude Speed Heading
2026-04-23 18:20 55.62788 12.64629 19 ft 0 kts 297°
2026-04-23 18:43 55.62784 12.64641 18 ft 3 kts 297°
2026-04-23 18:43 55.62776 12.64671 19 ft 3 kts 276°
2026-04-23 18:43 55.62768 12.64698 20 ft 3 kts 332°
2026-04-23 18:44 55.62751 12.64699 19 ft 2 kts 28°
2026-04-23 18:44 55.62749 12.64698 19 ft 0 kts 28°
2026-04-23 18:45 55.62746 12.64695 19 ft 2 kts 25°
2026-04-23 18:46 55.62712 12.64677 22 ft 4 kts 12°
2026-04-23 18:46 55.62685 12.64668 20 ft 7 kts 11°
2026-04-23 18:46 55.62624 12.64653 20 ft 5 kts 351°
2026-04-23 18:46 55.62605 12.64658 18 ft 0 kts
2026-04-23 18:47 55.62608 12.64658 18 ft 0 kts
2026-04-23 18:55 55.62673 12.64684 19 ft 10 kts 38°
2026-04-23 18:55 55.62686 12.64759 17 ft 5 kts 117°
2026-04-23 18:55 55.62660 12.64783 17 ft 3 kts 182°
2026-04-23 18:55 55.62625 12.64776 18 ft 7 kts 187°
2026-04-23 18:56 55.62593 12.64771 18 ft 1 kts 182°
2026-04-23 19:10 55.62563 12.64770 18 ft 18 kts 180°
2026-04-23 19:10 55.62431 12.64775 20 ft 19 kts 177°
2026-04-23 19:11 55.62412 12.64777 20 ft 0 kts 177°
2026-04-23 19:11 55.62401 12.64781 22 ft 7 kts 161°
2026-04-23 19:11 55.62327 12.64895 23 ft 13 kts 170°
2026-04-23 19:11 55.62264 12.64845 24 ft 15 kts 216°
2026-04-23 19:12 55.62203 12.64765 22 ft 17 kts 214°
2026-04-23 19:12 55.61996 12.64529 18 ft 33 kts 200°
2026-04-23 19:12 55.61780 12.64546 18 ft 19 kts 169°
2026-04-23 19:12 55.61651 12.64535 18 ft 24 kts 209°
2026-04-23 19:13 55.61460 12.64321 16 ft 34 kts 213°
2026-04-23 19:13 55.61259 12.64089 15 ft 34 kts 213°
2026-04-23 19:13 55.61066 12.63862 16 ft 32 kts 213°
2026-04-23 19:13 55.60883 12.63654 19 ft 31 kts 212°
2026-04-23 19:14 55.60704 12.63448 18 ft 31 kts 213°
2026-04-23 19:14 55.60543 12.63219 21 ft 29 kts 221°
2026-04-23 19:14 55.60433 12.63117 23 ft 12 kts 168°
2026-04-23 19:14 55.60394 12.63169 24 ft 0 kts 130°
2026-04-23 19:16 55.60366 12.63229 25 ft 14 kts 127°
2026-04-23 19:17 55.60734 12.63964 24 ft 106 kts 41°
2026-04-23 19:17 55.61459 12.65063 42 ft 164 kts 40°
2026-04-23 19:17 55.62394 12.66568 419 ft 197 kts 42°
2026-04-23 19:17 55.63482 12.68323 792 ft 227 kts 40°
2026-04-23 19:18 55.64751 12.70282 1216 ft 256 kts 38°
2026-04-23 19:18 55.66344 12.71806 1636 ft 276 kts
2026-04-23 19:18 55.68296 12.71471 2079 ft 296 kts 337°
2026-04-23 19:18 55.70213 12.69860 2634 ft 314 kts 341°
2026-04-23 19:19 55.74659 12.69054 3770 ft 323 kts 345°
2026-04-23 19:19 55.76702 12.67441 4301 ft 323 kts 326°
2026-04-23 19:20 55.80134 12.62220 5364 ft 327 kts 318°
2026-04-23 19:20 55.81789 12.59427 5875 ft 329 kts 317°
2026-04-23 19:20 55.83444 12.56590 6391 ft 331 kts 317°
2026-04-23 19:20 55.85093 12.53705 6883 ft 333 kts 316°
2026-04-23 19:21 55.86708 12.50725 7362 ft 336 kts 313°
2026-04-23 19:21 55.88748 12.43168 8341 ft 344 kts 297°
2026-04-23 19:21 55.90085 12.39670 8853 ft 343 kts 316°
2026-04-23 19:22 55.91275 12.37834 9245 ft 341 kts 324°
2026-04-23 19:22 55.93206 12.35382 9918 ft 340 kts 327°
2026-04-23 19:22 55.97194 12.30857 11138 ft 339 kts 330°
2026-04-23 19:23 55.99291 12.28968 11740 ft 337 kts 341°
2026-04-23 19:23 56.01562 12.27943 12367 ft 337 kts 347°
2026-04-23 19:23 56.03890 12.27055 13007 ft 345 kts 347°
2026-04-23 19:24 56.08649 12.25121 14278 ft 359 kts 346°
2026-04-23 19:24 56.11100 12.24062 14876 ft 365 kts 347°
2026-04-23 19:24 56.16181 12.22502 16105 ft 374 kts 351°
2026-04-23 19:25 56.21380 12.21115 17373 ft 380 kts 351°
2026-04-23 19:25 56.26629 12.19669 18615 ft 385 kts 350°
2026-04-23 19:26 56.32056 12.18161 19015 ft 407 kts 350°
2026-04-23 19:26 56.34814 12.17402 19081 ft 402 kts 351°
2026-04-23 19:27 56.40292 12.15884 19096 ft 395 kts 350°
2026-04-23 19:27 56.48383 12.13623 19121 ft 389 kts 351°
2026-04-23 19:28 56.53335 12.12246 19102 ft 330 kts 350°
2026-04-23 19:28 56.57561 12.12560 18790 ft 292 kts
2026-04-23 19:29 56.59506 12.13609 18071 ft 296 kts 21°
2026-04-23 19:29 56.62396 12.19414 15533 ft 347 kts 70°
2026-04-23 19:30 56.62086 12.28317 14032 ft 351 kts 99°
2026-04-23 19:30 56.60914 12.32369 12604 ft 377 kts 131°
2026-04-23 19:30 56.56883 12.38254 11219 ft 364 kts 142°
2026-04-23 19:31 56.54834 12.40964 10358 ft 364 kts 141°
2026-04-23 19:31 56.52902 12.43817 9797 ft 352 kts 138°
2026-04-23 19:31 56.51050 12.46641 8964 ft 348 kts 137°
2026-04-23 19:31 56.49218 12.49536 7926 ft 350 kts 134°
2026-04-23 19:32 56.47519 12.52631 7226 ft 342 kts 133°
2026-04-23 19:32 56.45828 12.55588 6527 ft 335 kts 134°
2026-04-23 19:32 56.44223 12.58566 5887 ft 325 kts 130°
2026-04-23 19:32 56.42759 12.61589 5372 ft 313 kts 129°
2026-04-23 19:33 56.41281 12.64347 4822 ft 306 kts 133°
2026-04-23 19:33 56.39778 12.66993 4204 ft 299 kts 133°
2026-04-23 19:33 56.36786 12.72257 2704 ft 299 kts 135°
2026-04-23 19:34 56.35286 12.74852 2026 ft 297 kts 134°
2026-04-23 19:34 56.33833 12.77281 1568 ft 255 kts 137°
2026-04-23 19:34 56.31936 12.80715 902 ft 149 kts 134°
2026-04-23 19:35 56.31262 12.82019 324 ft 142 kts 128°
2026-04-23 19:35 56.30736 12.83262 67 ft 81 kts 129°
2026-04-23 19:35 56.30635 12.83478 66 ft 0 kts 130°